Location: Balaclava NSW 2575, Australia
(34.4510°S, 150.4953°E)
Time: 07:21:10
(UTC+10:00)

X-37B - Pass Details

Date: 09 August 2021
Orbit: 381 x 393 km, 45.0° (Epoch: 29 August)

Event Time Altitude Azimuth Distance (km) Brightness Sun altitude
Rises 19:18:06 0° 258° (WSW) 2,304 5.8 -24.0°
Reaches altitude 10° 19:21:12 10° 291° (WNW) 1,436 4.4 -24.7°
Maximum altitude 19:22:32 12° 315° (NW) 1,315 3.8 -24.9°
Enters shadow 19:23:41 11° 337° (NNW) 1,399 3.7 -25.2°
